GW3580 Weather Reports


time (UTC)temp
C
wind
direction
speed
KPH
gust
KPH
rain 1hr
cm
rain 24hr
cm
rain mn
cm
humidity
%
barometer
mb
20260906083442 18 266 3.2 3.2 0.00 0.00 0.00 58 1012.5
20260906082940 18 269 3.2 3.2 0.00 0.00 0.00 58 1012.2
20260906082436 18 277 4.8 6.4 0.00 0.00 0.00 59 1012.4
20260906081931 18 251 3.2 3.2 0.00 0.00 0.00 59 1012.3
20260906081427 18 339 0.0 0.0 0.00 0.00 0.00 58 1012.2
20260906080923 18 278 3.2 3.2 0.00 0.00 0.00 57 1012.3
20260906080419 18 291 1.6 1.6 0.00 0.00 0.00 57 1012.2
20260906075918 18 291 3.2 3.2 0.00 0.00 0.00 56 1012.2
20260906075414 19 266 4.8 8.0 0.00 0.00 0.00 55 1012.1
20260906074909 19 263 4.8 6.4 0.00 0.00 0.00 55 1012.2
20260906074403 19 273 6.4 6.4 0.00 0.00 0.00 55 1012.1
20260906073901 19 261 3.2 3.2 0.00 0.00 0.00 55 1012.0
20260906073356 20 248 3.2 3.2 0.00 0.00 0.00 55 1012.1
20260906072853 20 264 4.8 6.4 0.00 0.00 0.00 54 1011.9
20260906072348 20 258 6.4 8.0 0.00 0.00 0.00 53 1012.0
20260906071844 20 273 3.2 3.2 0.00 0.00 0.00 52 1012.1
20260906071339 20 271 4.8 6.4 0.00 0.00 0.00 51 1011.9
20260906070836 20 231 3.2 3.2 0.00 0.00 0.00 51 1011.9
20260906070331 20 260 4.8 6.4 0.00 0.00 0.00 51 1011.8
20260906065826 20 231 4.8 6.4 0.00 0.00 0.00 52 1011.9
20260906065321 20 261 3.2 3.2 0.00 0.00 0.00 52 1011.7
20260906064817 20 216 0.0 1.6 0.00 0.00 0.00 54 1011.9
20260906064313 21 255 0.0 0.0 0.00 0.00 0.00 53 1011.9
20260906063807 21 303 0.0 0.0 0.00 0.00 0.00 52 1011.9
20260906063303 21 255 1.6 1.6 0.00 0.00 0.00 50 1011.8
20260906062757 21 241 1.6 3.2 0.00 0.00 0.00 50 1012.0
20260906062256 21 278 1.6 1.6 0.00 0.00 0.00 50 1011.9
20260906061752 21 242 3.2 3.2 0.00 0.00 0.00 49 1012.0
20260906061249 21 274 3.2 3.2 0.00 0.00 0.00 49 1011.9
20260906060743 21 242 0.0 1.6 0.00 0.00 0.00 49 1011.8
20260906060241 21 250 1.6 1.6 0.00 0.00 0.00 50 1011.8
20260906055736 21 162 1.6 1.6 0.00 0.00 0.00 49 1011.9
20260906055232 21 243 4.8 8.0 0.00 0.00 0.00 49 1011.7
20260906054727 21 244 1.6 1.6 0.00 0.00 0.00 49 1011.6
20260906054222 22 258 3.2 3.2 0.00 0.00 0.00 49 1011.5
20260906053719 22 231 1.6 1.6 0.00 0.00 0.00 49 1011.8
20260906053214 22 242 1.6 1.6 0.00 0.00 0.00 50 1011.6
20260906052709 22 242 3.2 3.2 0.00 0.00 0.00 50 1011.6
20260906052205 22 292 1.6 1.6 0.00 0.00 0.00 51 1011.5
20260906051702 22 238 1.6 1.6 0.00 0.00 0.00 50 1011.7
20260906051201 22 247 1.6 1.6 0.00 0.00 0.00 50 1011.7
20260906050657 22 265 4.8 6.4 0.00 0.00 0.00 49 1011.7
20260906050151 22 291 3.2 6.4 0.00 0.00 0.00 50 1011.8
20260906045650 22 250 3.2 3.2 0.00 0.00 0.00 51 1011.6
20260906045145 22 73 0.0 0.0 0.00 0.00 0.00 50 1011.9
20260906044641 22 67 0.0 0.0 0.00 0.00 0.00 49 1011.6
20260906044137 22 55 0.0 0.0 0.00 0.00 0.00 49 1011.6
20260906043633 22 232 0.0 0.0 0.00 0.00 0.00 49 1011.9
20260906043128 22 293 0.0 1.6 0.00 0.00 0.00 50 1011.6
20260906042627 23 295 1.6 3.2 0.00 0.00 0.00 50 1011.8
20260906042121 23 238 0.0 1.6 0.00 0.00 0.00 50 1011.6
20260906041618 23 209 1.6 3.2 0.00 0.00 0.00 49 1011.5
20260906041112 24 231 1.6 1.6 0.00 0.00 0.00 47 1011.4
20260906040608 25 251 3.2 6.4 0.00 0.00 0.00 46 1011.1
20260906035558 25 255 4.8 6.4 0.00 0.00 0.00 46 1010.9
20260906035054 23 256 0.0 1.6 0.00 0.00 0.00 49 1010.8
20260906034554 23 47 0.0 0.0 0.00 0.00 0.00 62 1010.8
20260906034049 23 47 0.0 0.0 0.00 0.00 0.00 61 1010.8
20260906033544 24 46 0.0 0.0 0.00 0.00 0.00 60 1010.6
20260906033039 23 46 0.0 0.0 0.00 0.00 0.00 54 1010.8
20260906032536 23 46 0.0 0.0 0.00 0.00 0.00 47 1010.4
20260906032030 23 44 0.0 0.0 0.00 0.00 0.00 49 1010.4
20260906031525 23 44 0.0 0.0 0.00 0.00 0.00 48 1010.4
20260906031016 24 44 0.0 0.0 0.00 0.00 0.00 48 1010.3
20260906030515 24 44 0.0 0.0 0.00 0.00 0.00 47 1010.3
20260906030014 25 44 0.0 0.0 0.00 0.00 0.00 46 1010.1
20260906025514 25 44 0.0 0.0 0.00 0.00 0.00 46 1010.2
20260906025012 25 44 0.0 0.0 0.00 0.00 0.00 44 1010.2
20260906024508 25 44 0.0 0.0 0.00 0.00 0.00 43 1010.2
20260906024008 25 44 0.0 0.0 0.00 0.00 0.00 44 1010.1
20260906023504 26 44 0.0 0.0 0.00 0.00 0.00 43 1010.1
20260906022959 26 44 0.0 0.0 0.00 0.00 0.00 41 1010.1
20260906022454 26 44 0.0 0.0 0.00 0.00 0.00 39 1010.2
20260906021949 27 44 0.0 0.0 0.00 0.00 0.00 40 1010.1
20260906021444 27 44 0.0 0.0 0.00 0.00 0.00 39 1010.1
20260906020938 28 44 0.0 0.0 0.00 0.00 0.00 39 1010.0
20260906020433 28 44 0.0 0.0 0.00 0.00 0.00 38 1010.2
20260906015927 28 51 0.0 0.0 0.00 0.00 0.00 38 1010.2
20260906015427 28 29 0.0 0.0 0.00 0.00 0.00 37 1010.0
20260906014926 29 354 0.0 0.0 0.00 0.00 0.00 34 1010.4
20260906014426 30 29 0.0 0.0 0.00 0.00 0.00 33 1010.1
20260906013922 30 327 0.0 0.0 0.00 0.00 0.00 31 1010.1
20260906013418 30 248 3.2 3.2 0.00 0.00 0.00 33 1010.2
20260906012914 30 315 1.6 1.6 0.00 0.00 0.00 32 1010.2
20260906012408 30 75 1.6 1.6 0.00 0.00 0.00 32 1010.4
20260906011907 30 258 1.6 1.6 0.00 0.00 0.00 31 1010.3
20260906011402 30 220 1.6 1.6 0.00 0.00 0.00 31 1010.5
20260906010858 31 21 0.0 1.6 0.00 0.00 0.00 29 1010.5
20260906010354 30 22 0.0 1.6 0.00 0.00 0.00 30 1010.3
20260906005850 31 243 4.8 6.4 0.00 0.00 0.00 29 1010.5
20260906005349 31 37 1.6 1.6 0.00 0.00 0.00 27 1010.4
20260906004847 31 39 0.0 0.0 0.00 0.00 0.00 28 1010.5
20260906004347 31 22 0.0 1.6 0.00 0.00 0.00 28 1010.4
20260906003843 31 49 0.0 0.0 0.00 0.00 0.00 28 1010.3
20260906003338 31 259 1.6 3.2 0.00 0.00 0.00 27 1010.4
20260906002833 31 260 1.6 1.6 0.00 0.00 0.00 26 1010.4
20260906002332 31 225 0.0 0.0 0.00 0.00 0.00 27 1010.4
20260906001828 31 329 1.6 1.6 0.00 0.00 0.00 27 1010.6
20260906001324 31 45 0.0 0.0 0.00 0.00 0.00 27 1010.4
20260906000819 30 259 1.6 3.2 0.00 0.00 0.00 28 1010.6
20260906000313 30 276 4.8 6.4 0.00 0.00 0.00 27 1010.4
20260905235808 31 251 4.8 6.4 0.00 0.00 0.00 26 1010.8
20260905235306 31 359 1.6 1.6 0.00 0.00 0.00 27 1010.4
20260905234758 31 241 1.6 1.6 0.00 0.00 0.00 28 1010.9
20260905234253 30 280 0.0 1.6 0.00 0.00 0.00 28 1010.9
20260905233748 30 265 8.0 9.7 0.00 0.00 0.00 28 1010.9
20260905233248 31 282 6.4 8.0 0.00 0.00 0.00 27 1010.9
20260905232747 30 66 1.6 1.6 0.00 0.00 0.00 28 1011.0
20260905232243 30 100 1.6 1.6 0.00 0.00 0.00 27 1010.9
20260905231739 30 21 3.2 3.2 0.00 0.00 0.00 28 1010.9
20260905231234 30 4 4.8 6.4 0.00 0.00 0.00 27 1011.2
20260905230731 30 350 1.6 1.6 0.00 0.00 0.00 27 1011.2
20260905230228 31 58 1.6 1.6 0.00 0.00 0.00 27 1011.2
20260905225728 31 200 0.0 1.6 0.00 0.00 0.00 27 1011.2
20260905225223 31 335 0.0 1.6 0.00 0.00 0.00 29 1011.1
20260905224722 30 252 3.2 3.2 0.00 0.00 0.00 28 1011.3
20260905224218 30 294 1.6 1.6 0.00 0.00 0.00 29 1011.3
20260905223714 30 253 1.6 1.6 0.00 0.00 0.00 28 1011.4
20260905223210 30 316 1.6 1.6 0.00 0.00 0.00 29 1011.5
20260905222706 30 275 9.7 9.7 0.00 0.00 0.00 28 1011.5
20260905222205 30 266 1.6 3.2 0.00 0.00 0.00 28 1011.7
20260905221701 30 235 3.2 3.2 0.00 0.00 0.00 28 1011.6
20260905221158 30 249 4.8 8.0 0.00 0.00 0.00 27 1011.8
20260905220653 30 18 4.8 8.0 0.00 0.00 0.00 28 1011.7
20260905220149 30 16 3.2 3.2 0.00 0.00 0.00 29 1011.9
20260905215649 30 20 1.6 3.2 0.00 0.00 0.00 29 1011.8
20260905215144 30 346 4.8 6.4 0.00 0.00 0.00 30 1012.1
20260905214640 30 52 3.2 3.2 0.00 0.00 0.00 29 1012.0
20260905214135 29 56 1.6 1.6 0.00 0.00 0.00 29 1012.3
20260905213630 29 97 1.6 1.6 0.00 0.00 0.00 29 1012.0
20260905213126 28 72 4.8 6.4 0.00 0.00 0.00 29 1012.2
20260905212621 30 94 3.2 3.2 0.00 0.00 0.00 28 1012.2
20260905212120 29 242 3.2 3.2 0.00 0.00 0.00 29 1012.3
20260905211615 29 77 1.6 1.6 0.00 0.00 0.00 29 1012.5
20260905211111 29 332 1.6 1.6 0.00 0.00 0.00 29 1012.3
20260905210607 29 15 1.6 3.2 0.00 0.00 0.00 29 1012.5
20260905205601 28 76 1.6 1.6 0.00 0.00 0.00 29 1012.7
20260905205101 28 60 0.0 1.6 0.00 0.00 0.00 30 1012.7
20260905204555 28 39 1.6 1.6 0.00 0.00 0.00 31 1012.6
20260905204050 29 242 3.2 3.2 0.00 0.00 0.00 30 1012.6
20260905203550 28 338 1.6 3.2 0.00 0.00 0.00 31 1012.5
20260905203045 28 249 4.8 6.4 0.00 0.00 0.00 30 1012.6
20260905202541 28 357 1.6 1.6 0.00 0.00 0.00 31 1012.8
20260905202036 28 326 1.6 1.6 0.00 0.00 0.00 31 1012.8
20260905201532 27 8 0.0 1.6 0.00 0.00 0.00 31 1012.9
20260905201031 27 226 0.0 0.0 0.00 0.00 0.00 30 1012.8
20260905200527 27 263 3.2 3.2 0.00 0.00 0.00 30 1012.9
20260905200026 27 358 0.0 1.6 0.00 0.00 0.00 30 1013.0
20260905195520 27 354 3.2 3.2 0.00 0.00 0.00 31 1012.9
20260905195015 27 320 3.2 3.2 0.00 0.00 0.00 31 1013.1
20260905194510 27 252 3.2 3.2 0.00 0.00 0.00 30 1012.9
20260905194009 27 65 3.2 3.2 0.00 0.00 0.00 31 1013.2
20260905193504 27 265 1.6 3.2 0.00 0.00 0.00 31 1013.2
20260905192959 27 332 0.0 0.0 0.00 0.00 0.00 32 1013.2
20260905192454 26 77 3.2 3.2 0.00 0.00 0.00 32 1013.2
20260905191950 27 3 1.6 1.6 0.00 0.00 0.00 33 1013.3
20260905191444 26 68 0.0 1.6 0.00 0.00 0.00 31 1013.3
20260905190943 26 258 1.6 1.6 0.00 0.00 0.00 32 1013.5
20260905190441 25 253 1.6 1.6 0.00 0.00 0.00 33 1013.6
20260905185940 25 282 6.4 8.0 0.00 0.00 0.00 34 1013.5
20260905185435 25 134 1.6 1.6 0.00 0.00 0.00 33 1013.7
20260905184934 25 257 1.6 1.6 0.00 0.00 0.00 34 1013.8
20260905184429 25 309 4.8 6.4 0.00 0.00 0.00 35 1013.5
20260905183927 25 232 4.8 6.4 0.00 0.00 0.00 33 1013.7
20260905183422 25 213 1.6 1.6 0.00 0.00 0.00 34 1013.8
20260905182918 25 170 0.0 1.6 0.00 0.00 0.00 34 1013.5
20260905182416 25 98 1.6 1.6 0.00 0.00 0.00 34 1013.8
20260905181913 25 271 4.8 6.4 0.00 0.00 0.00 35 1013.9
20260905181412 24 272 4.8 6.4 0.00 0.00 0.00 36 1014.0
20260905180912 23 224 3.2 3.2 0.00 0.00 0.00 36 1013.9
20260905180406 23 257 4.8 6.4 0.00 0.00 0.00 36 1013.8
20260905175901 24 257 6.4 8.0 0.00 0.00 0.00 36 1014.1
20260905175400 23 304 1.6 1.6 0.00 0.00 0.00 37 1014.0
20260905174855 23 209 3.2 3.2 0.00 0.00 0.00 38 1013.7
20260905174352 23 293 0.0 0.0 0.00 0.00 0.00 38 1013.9
20260905173847 23 225 4.8 6.4 0.00 0.00 0.00 39 1013.9
20260905173343 23 47 1.6 1.6 0.00 0.00 0.00 38 1013.8
20260905172838 22 255 4.8 6.4 0.00 0.00 0.00 40 1013.7
20260905172336 22 298 1.6 3.2 0.00 0.00 0.00 40 1013.9
20260905171832 22 252 4.8 6.4 0.00 0.00 0.00 42 1013.8
20260905171329 22 241 1.6 6.4 0.00 0.00 0.00 41 1013.9
20260905170825 22 76 0.0 1.6 0.00 0.00 0.00 40 1013.9
20260905170320 22 256 4.8 6.4 0.00 0.00 0.00 41 1013.9
20260905165820 22 83 0.0 1.6 0.00 0.00 0.00 42 1013.8
20260905165315 21 79 1.6 1.6 0.00 0.00 0.00 45 1013.8
20260905164815 22 246 4.8 6.4 0.00 0.00 0.00 45 1013.9
20260905164310 21 67 1.6 1.6 0.00 0.00 0.00 45 1013.8
20260905163805 20 104 0.0 1.6 0.00 0.00 0.00 49 1014.0
20260905163301 20 0 3.2 3.2 0.00 0.00 0.00 49 1013.7
20260905162757 20 305 3.2 3.2 0.00 0.00 0.00 49 1013.8
20260905162257 20 221 3.2 6.4 0.00 0.00 0.00 49 1013.7
20260905161751 20 321 0.0 0.0 0.00 0.00 0.00 50 1013.8
20260905161250 20 300 1.6 1.6 0.00 0.00 0.00 50 1013.8
20260905160749 20 44 1.6 1.6 0.00 0.00 0.00 51 1013.5
20260905160243 19 50 0.0 0.0 0.00 0.00 0.00 52 1013.8
20260905155738 19 292 1.6 1.6 0.00 0.00 0.00 52 1013.8
20260905155237 19 55 0.0 1.6 0.00 0.00 0.00 51 1013.8
20260905154731 18 37 1.6 1.6 0.00 0.00 0.00 51 1013.5
20260905154227 19 63 1.6 1.6 0.00 0.00 0.00 52 1013.5
20260905153722 19 17 1.6 1.6 0.00 0.00 0.00 55 1013.3
20260905153219 18 323 0.0 0.0 0.00 0.00 0.00 56 1013.5
20260905152713 18 34 0.0 0.0 0.00 0.00 0.00 57 1013.4
20260905152207 17 248 0.0 1.6 0.00 0.00 0.00 58 1013.2
20260905151707 17 82 0.0 0.0 0.00 0.00 0.00 59 1013.3
20260905151203 17 111 0.0 0.0 0.00 0.00 0.00 62 1013.1
20260905150658 16 266 3.2 3.2 0.00 0.00 0.00 63 1013.1
20260905150156 16 240 3.2 3.2 0.00 0.00 0.00 65 1013.1
20260905145655 16 247 3.2 3.2 0.00 0.00 0.00 67 1012.9
20260905145154 16 249 4.8 6.4 0.00 0.00 0.00 66 1013.0
20260905144648 15 306 3.2 3.2 0.00 0.00 0.00 68 1012.9
20260905144143 15 240 1.6 1.6 0.00 0.00 0.00 69 1013.0
20260905143637 15 273 1.6 1.6 0.00 0.00 0.00 69 1012.8
20260905143132 15 259 1.6 3.2 0.00 0.00 0.00 69 1012.8
20260905142631 15 273 1.6 1.6 0.00 0.00 0.00 70 1012.9
20260905142131 15 248 3.2 3.2 0.00 0.00 0.00 70 1012.8
20260905141630 15 283 1.6 1.6 0.00 0.00 0.00 70 1012.9
20260905141127 15 264 3.2 3.2 0.00 0.00 0.00 70 1012.7
20260905140622 15 264 1.6 1.6 0.00 0.00 0.00 70 1012.7
20260905140121 15 280 3.2 3.2 0.00 0.00 0.00 69 1013.0
20260905135616 15 283 3.2 3.2 0.00 0.00 0.00 69 1012.6
20260905135112 15 301 3.2 3.2 0.00 0.00 0.00 69 1012.7
20260905134607 15 255 3.2 6.4 0.00 0.00 0.00 69 1012.6
20260905134105 15 276 3.2 3.2 0.00 0.00 0.00 68 1012.6
20260905133601 15 281 1.6 1.6 0.00 0.00 0.00 68 1012.7
20260905133101 15 295 3.2 3.2 0.00 0.00 0.00 68 1012.5
20260905132600 15 278 4.8 6.4 0.00 0.00 0.00 68 1012.3
20260905132055 15 271 1.6 1.6 0.00 0.00 0.00 67 1012.6
20260905131551 15 285 1.6 1.6 0.00 0.00 0.00 66 1012.5
20260905131046 15 276 4.8 6.4 0.00 0.00 0.00 65 1012.5
20260905130545 15 293 3.2 3.2 0.00 0.00 0.00 64 1012.5
20260905130040 15 291 1.6 1.6 0.00 0.00 0.00 63 1012.4
20260905125539 15 241 3.2 3.2 0.00 0.00 0.00 63 1012.3
20260905125035 15 285 3.2 3.2 0.00 0.00 0.00 63 1012.1
20260905124532 15 284 1.6 1.6 0.00 0.00 0.00 63 1012.2
20260905124028 15 278 3.2 3.2 0.00 0.00 0.00 63 1012.4
20260905123523 15 269 3.2 3.2 0.00 0.00 0.00 63 1012.4
20260905123019 15 256 3.2 3.2 0.00 0.00 0.00 63 1012.5
20260905122513 15 280 3.2 3.2 0.00 0.00 0.00 65 1012.5
20260905122009 15 303 0.0 0.0 0.00 0.00 0.00 66 1012.5
20260905121509 15 249 1.6 1.6 0.00 0.00 0.00 66 1012.4
20260905121003 15 66 0.0 0.0 0.00 0.00 0.00 66 1012.3
20260905120457 16 52 1.6 1.6 0.00 0.00 0.00 65 1012.2
20260905115952 16 246 1.6 1.6 0.00 0.00 0.00 65 1012.4
20260905115451 16 224 3.2 3.2 0.00 0.00 0.00 64 1012.4
20260905114946 16 315 1.6 1.6 0.00 0.00 0.00 64 1012.2
20260905114446 16 351 1.6 3.2 0.00 0.00 0.00 64 1012.3
20260905113944 16 263 3.2 3.2 0.00 0.00 0.00 65 1012.3
20260905113440 16 309 0.0 1.6 0.00 0.00 0.00 65 1012.2
20260905112935 16 240 3.2 3.2 0.00 0.00 0.00 65 1012.3
20260905112431 16 231 3.2 3.2 0.00 0.00 0.00 65 1012.4
20260905111926 16 157 0.0 1.6 0.00 0.00 0.00 65 1012.5
20260905111426 16 98 0.0 0.0 0.00 0.00 0.00 65 1012.2
20260905110920 16 288 0.0 1.6 0.00 0.00 0.00 66 1012.3
20260905110414 16 306 0.0 0.0 0.00 0.00 0.00 66 1012.3
20260905105908 16 44 0.0 0.0 0.00 0.00 0.00 66 1012.4
20260905105403 16 261 1.6 1.6 0.00 0.00 0.00 65 1012.3
20260905104903 16 278 3.2 3.2 0.00 0.00 0.00 65 1012.4
20260905104359 16 272 0.0 1.6 0.00 0.00 0.00 66 1012.4
20260905103858 16 348 0.0 1.6 0.00 0.00 0.00 65 1012.3
20260905103354 16 142 0.0 1.6 0.00 0.00 0.00 64 1012.1
20260905102850 16 287 1.6 1.6 0.00 0.00 0.00 64 1012.4
20260905102347 16 263 0.0 1.6 0.00 0.00 0.00 64 1012.4
20260905101846 17 240 3.2 3.2 0.00 0.00 0.00 63 1012.4
20260905101345 17 236 3.2 3.2 0.00 0.00 0.00 62 1012.6
20260905100839 17 249 1.6 1.6 0.00 0.00 0.00 62 1012.6
20260905100336 17 298 1.6 1.6 0.00 0.00 0.00 61 1012.6
20260905095834 17 258 3.2 3.2 0.00 0.00 0.00 61 1012.7
20260905095329 17 271 4.8 6.4 0.00 0.00 0.00 61 1012.5
20260905094824 17 267 4.8 6.4 0.00 0.00 0.00 60 1012.5
20260905094319 17 259 4.8 6.4 0.00 0.00 0.00 61 1012.4
20260905093818 17 269 3.2 3.2 0.00 0.00 0.00 60 1012.8
20260905093314 17 225 4.8 8.0 0.00 0.00 0.00 60 1012.6
20260905092810 17 291 3.2 3.2 0.00 0.00 0.00 60 1012.5
20260905092310 17 266 4.8 6.4 0.00 0.00 0.00 60 1012.6
20260905091805 17 238 3.2 3.2 0.00 0.00 0.00 59 1012.5
20260905091304 17 265 3.2 3.2 0.00 0.00 0.00 59 1012.5
20260905090803 17 256 3.2 3.2 0.00 0.00 0.00 58 1012.9
20260905090259 17 254 0.0 1.6 0.00 0.00 0.00 58 1012.6
20260905085758 17 247 3.2 3.2 0.00 0.00 0.00 58 1012.7
20260905085253 17 238 3.2 3.2 0.00 0.00 0.00 57 1012.8
20260905084748 18 244 1.6 1.6 0.00 0.00 0.00 56 1012.6
20260905084248 18 273 0.0 1.6 0.00 0.00 0.00 55 1012.9